Weather History for Auburn, CA

Change the Weather History Date:

Wednesday, April 9, 2014

  Actual Average Record
Temperature  
Mean Temperature 68 °F -  
Max Temperature 77 °F 66 °F 84 °F (1989)
Min Temperature 59 °F 43 °F 32 °F (1953)
Cooling Degree Days 3    
Growing Degree Days 18 (Base 50)    
Moisture  
Dew Point 48 °F    
Average Humidity 50    
Maximum Humidity 77    
Minimum Humidity 38    
Precipitation  
Precipitation 0.00 in - - ()
Sea Level Pressure  
Sea Level Pressure 30.04 in    
Wind  
Wind Speed 8 mph (SE)    
Max Wind Speed 10 mph    
Max Gust Speed -    
Visibility 10 miles    
Events      
Averages and records for this station are not official NWS values.
T = Trace of Precipitation, MM = Missing Value Source: NWS Daily Summary

Daily Weather History Graph

Daily Weather History Graph

Search for Another Location

Airport:

Trip Planner

Search our weather history database for the weather conditions in past years. The results will help you decide how hot, cold, wet, or windy it might be!

Date:

Astronomy

Apr. 09, 2014 Rise Set
Actual Time 6:36 AM PDT 7:35 PM PDT
Civil Twilight 6:09 AM PDT 8:03 PM PDT
Nautical Twilight 5:36 AM PDT 8:35 PM PDT
Astronomical Twilight 5:03 AM PDT 9:09 PM PDT
Moon 2:31 PM PDT (4/9) 3:26 AM PDT (4/9)
Length of Visible Light 13h 53m
Length of Day
12h 59m
Waxing Gibbous, 72% of the Moon is Illuminated
Apr 9
Waxing Gibbous
Apr 15
Full
Apr 22
Last Quarter
Apr 28
New
May 6
First Quarter

Hourly Weather History & Observations

Time (PDT) Temp. Dew Point Humidity Pressure Visibility Wind Dir Wind Speed Gust Speed Precip Events Conditions
12:15 AM 64.4 °F 46.4 °F 52% 30.07 in 10.0 mi East 10.4 mph - N/A   Clear
12:35 AM 62.6 °F 46.4 °F 55% 30.08 in 10.0 mi East 9.2 mph - N/A   Clear
12:55 AM 62.6 °F 46.4 °F 55% 30.07 in 10.0 mi East 9.2 mph - N/A   Clear
1:15 AM 62.6 °F 46.4 °F 55% 30.07 in 10.0 mi East 9.2 mph - N/A   Clear
1:35 AM 62.6 °F 46.4 °F 55% 30.07 in 10.0 mi East 8.1 mph - N/A   Clear
1:55 AM 62.6 °F 44.6 °F 52% 30.07 in 10.0 mi East 10.4 mph - N/A   Clear
2:15 AM 62.6 °F 44.6 °F 52% 30.07 in 10.0 mi East 10.4 mph - N/A   Clear
2:55 AM 60.8 °F 44.6 °F 55% 30.06 in 10.0 mi East 9.2 mph - N/A   Clear
3:15 AM 60.8 °F 44.6 °F 55% 30.05 in 10.0 mi East 9.2 mph - N/A   Clear
3:35 AM 60.8 °F 44.6 °F 55% 30.05 in 10.0 mi East 9.2 mph - N/A   Clear
3:55 AM 60.8 °F 44.6 °F 55% 30.05 in 10.0 mi East 10.4 mph - N/A   Clear
4:15 AM 60.8 °F 44.6 °F 55% 30.05 in 10.0 mi East 8.1 mph - N/A   Clear
4:35 AM 60.8 °F 44.6 °F 55% 30.05 in 10.0 mi East 9.2 mph - N/A   Clear
4:55 AM 59.0 °F 44.6 °F 59% 30.04 in 10.0 mi East 5.8 mph - N/A   Clear
5:15 AM 59.0 °F 44.6 °F 59% 30.04 in 10.0 mi East 9.2 mph - N/A   Clear
5:35 AM 59.0 °F 44.6 °F 59% 30.04 in 10.0 mi East 8.1 mph - N/A   Clear
5:55 AM 60.8 °F 42.8 °F 52% 30.04 in 10.0 mi East 10.4 mph - N/A   Clear
6:15 AM 59.0 °F 42.8 °F 55% 30.04 in 10.0 mi East 9.2 mph - N/A   Clear
6:35 AM 59.0 °F 42.8 °F 55% 30.05 in 10.0 mi East 8.1 mph - N/A   Clear
6:55 AM 59.0 °F 42.8 °F 55% 30.05 in 10.0 mi East 9.2 mph - N/A   Clear
7:15 AM 59.0 °F 42.8 °F 55% 30.05 in 10.0 mi East 8.1 mph - N/A   Clear
7:35 AM 60.8 °F 42.8 °F 52% 30.06 in 10.0 mi East 10.4 mph - N/A   Clear
7:55 AM 60.8 °F 42.8 °F 52% 30.06 in 10.0 mi East 8.1 mph - N/A   Clear
8:15 AM 62.6 °F 42.8 °F 48% 30.06 in 10.0 mi East 9.2 mph - N/A   Clear
8:55 AM 64.4 °F 44.6 °F 49% 30.06 in 10.0 mi East 9.2 mph - N/A   Clear
9:15 AM 66.2 °F 44.6 °F 46% 30.06 in 10.0 mi ESE 9.2 mph - N/A   Clear
9:35 AM 68.0 °F 46.4 °F 46% 30.06 in 10.0 mi ESE 5.8 mph - N/A   Clear
9:55 AM 69.8 °F 44.6 °F 40% 30.07 in 10.0 mi ESE 5.8 mph - N/A   Clear
10:15 AM 69.8 °F 44.6 °F 40% 30.07 in 10.0 mi SSE 4.6 mph - N/A   Clear
10:35 AM 71.6 °F 46.4 °F 41% 30.08 in 10.0 mi South 5.8 mph - N/A   Clear
10:55 AM 73.4 °F 48.2 °F 41% 30.07 in 10.0 mi SW 6.9 mph - N/A   Clear
11:15 AM 71.6 °F 46.4 °F 41% 30.08 in 10.0 mi SW 3.5 mph - N/A   Clear
11:35 AM 73.4 °F 48.2 °F 41% 30.08 in 10.0 mi WSW 4.6 mph - N/A   Clear
11:55 AM 73.4 °F 48.2 °F 41% 30.08 in 10.0 mi WSW 3.5 mph - N/A   Clear
12:15 PM 73.4 °F 50.0 °F 44% 30.07 in 10.0 mi SW 5.8 mph - N/A   Clear
12:55 PM 75.2 °F 53.6 °F 47% 30.07 in 10.0 mi West 5.8 mph - N/A   Clear
1:15 PM 75.2 °F 51.8 °F 44% 30.06 in 10.0 mi WSW 6.9 mph - N/A   Clear
1:35 PM 75.2 °F 50.0 °F 41% 30.06 in 10.0 mi SW 8.1 mph - N/A   Clear
1:55 PM 75.2 °F 50.0 °F 41% 30.05 in 10.0 mi SW 3.5 mph - N/A   Clear
2:15 PM 75.2 °F 48.2 °F 38% 30.05 in 10.0 mi WSW 4.6 mph - N/A   Clear
2:35 PM 75.2 °F 51.8 °F 44% 30.05 in 10.0 mi SW 4.6 mph - N/A   Clear
2:55 PM 75.2 °F 51.8 °F 44% 30.05 in 10.0 mi SW 8.1 mph - N/A   Clear
3:15 PM 75.2 °F 51.8 °F 44% 30.04 in 10.0 mi West 4.6 mph - N/A   Clear
3:35 PM 75.2 °F 51.8 °F 44% 30.03 in 10.0 mi South 3.5 mph - N/A   Clear
3:55 PM 77.0 °F 51.8 °F 41% 30.03 in 10.0 mi WSW 4.6 mph - N/A   Clear
4:15 PM 75.2 °F 51.8 °F 44% 30.03 in 10.0 mi SSW 5.8 mph - N/A   Clear
4:35 PM 75.2 °F 50.0 °F 41% 30.02 in 10.0 mi South 8.1 mph - N/A   Clear
4:55 PM 75.2 °F 48.2 °F 38% 30.02 in 10.0 mi South 8.1 mph - N/A   Clear
5:15 PM 75.2 °F 51.8 °F 44% 30.01 in 10.0 mi SSW 5.8 mph - N/A   Clear
5:35 PM 75.2 °F 51.8 °F 44% 30.01 in 10.0 mi WSW 4.6 mph - N/A   Clear
5:55 PM 75.2 °F 48.2 °F 38% 30.00 in 10.0 mi SSW 6.9 mph - N/A   Clear
6:15 PM 75.2 °F 51.8 °F 44% 30.00 in 10.0 mi SSW 6.9 mph - N/A   Clear
6:35 PM 73.4 °F 48.2 °F 41% 30.00 in 10.0 mi SSW 5.8 mph - N/A   Clear
6:55 PM 73.4 °F 48.2 °F 41% 30.00 in 10.0 mi South 5.8 mph - N/A   Clear
7:15 PM 73.4 °F 48.2 °F 41% 30.00 in 10.0 mi South 4.6 mph - N/A   Clear
7:35 PM 71.6 °F 50.0 °F 46% 29.99 in 10.0 mi Calm Calm - N/A   Clear
7:55 PM 69.8 °F 50.0 °F 49% 30.00 in 10.0 mi Calm Calm - N/A   Clear
8:15 PM 64.4 °F 51.8 °F 64% 30.00 in 10.0 mi Calm Calm - N/A   Clear
8:35 PM 60.8 °F 51.8 °F 72% 30.01 in 10.0 mi Calm Calm - N/A   Clear
8:55 PM 64.4 °F 50.0 °F 59% 30.02 in 10.0 mi Calm Calm - N/A   Clear
9:15 PM 59.0 °F 51.8 °F 77% 30.02 in 10.0 mi Calm Calm - N/A   Clear
9:35 PM 62.6 °F 48.2 °F 59% 30.03 in 10.0 mi SE 4.6 mph - N/A   Clear
9:55 PM 64.4 °F 48.2 °F 56% 30.03 in 10.0 mi SE 4.6 mph - N/A   Clear
10:15 PM 62.6 °F 48.2 °F 59% 30.03 in 10.0 mi ESE 4.6 mph - N/A   Clear
10:35 PM 60.8 °F 48.2 °F 63% 30.03 in 10.0 mi Calm Calm - N/A   Clear
10:55 PM 62.6 °F 48.2 °F 59% 30.03 in 10.0 mi East 5.8 mph - N/A   Clear
11:15 PM 60.8 °F 48.2 °F 63% 30.03 in 10.0 mi East 4.6 mph - N/A   Clear
11:35 PM 60.8 °F 48.2 °F 63% 30.03 in 10.0 mi East 8.1 mph - N/A   Clear
11:55 PM 60.8 °F 48.2 °F 63% 30.03 in 10.0 mi East 9.2 mph - N/A   Clear